This is the latest recevied weather packets stored in our database for station/object KN6CW-3. If no packets are shown the sender has not sent any weather packets the latest 10 day(s).
| Time | Temp. | Humidity | Pressure | Rain* | Wind** | Luminosity | Snow |
|---|---|---|---|---|---|---|---|
| 1777936398 | 17.78° C | 47% | 1008.8 hPa | 0 mm | - | 33 W/m² | - |
| 1777936097 | 17.78° C | 47% | 1008.8 hPa | 0 mm | - | 37 W/m² | - |
| 1777935797 | 18.33° C | 47% | 1008.7 hPa | 0 mm | - | 37 W/m² | - |
| 1777935497 | 18.33° C | 47% | 1008.6 hPa | 0 mm | - | 37 W/m² | - |
| 1777935197 | 18.33° C | 46% | 1008.6 hPa | 0 mm | - | 69 W/m² | - |
| 1777934896 | 18.33° C | 46% | 1008.5 hPa | 0 mm | - | 134 W/m² | - |
| 1777934596 | 18.89° C | 45% | 1008.5 hPa | 0 mm | - | 148 W/m² | - |
| 1777934296 | 18.89° C | 45% | 1008.5 hPa | 0 mm | - | 190 W/m² | - |
| 1777933995 | 18.89° C | 45% | 1008.6 hPa | 0 mm | - | 199 W/m² | - |
| 1777933695 | 18.89° C | 44% | 1008.6 hPa | 0 mm | - | 211 W/m² | - |
| 1777933395 | 19.44° C | 44% | 1008.5 hPa | 0 mm | - | 225 W/m² | - |
| 1777933095 | 19.44° C | 44% | 1008.7 hPa | 0 mm | - | 234 W/m² | - |
| 1777932794 | 19.44° C | 43% | 1008.7 hPa | 0 mm | - | 218 W/m² | - |
| 1777932494 | 19.44° C | 43% | 1008.8 hPa | 0 mm | - | 211 W/m² | - |
| 1777932194 | 19.44° C | 43% | 1008.8 hPa | 0 mm | - | 225 W/m² | - |
| 1777931893 | 19.44° C | 43% | 1008.8 hPa | 0 mm | - | 251 W/m² | - |
| 1777931593 | 19.44° C | 44% | 1008.9 hPa | 0 mm | - | 285 W/m² | - |
| 1777931293 | 19.44° C | 43% | 1008.8 hPa | 0 mm | - | 297 W/m² | - |
| 1777930993 | 19.44° C | 43% | 1008.9 hPa | 0 mm | - | 304 W/m² | - |
| 1777930692 | 19.44° C | 42% | 1008.8 hPa | 0 mm | - | 315 W/m² | - |
| 1777930392 | 20° C | 42% | 1008.8 hPa | 0 mm | - | 323 W/m² | - |
| 1777930092 | 19.44° C | 43% | 1008.9 hPa | 0 mm | - | 322 W/m² | - |
| 1777929791 | 19.44° C | 42% | 1009 hPa | 0 mm | - | 306 W/m² | - |
| 1777929491 | 20° C | 42% | 1009 hPa | 0 mm | - | 301 W/m² | - |
| 1777929191 | 20° C | 41% | 1009 hPa | 0 mm | - | 325 W/m² | - |
* Rain latest hour (hover to see other rain measurements)
** Current wind speed in m/s (hover to see current wind gust speed)